EN

Hourly Weather Acarau

Today, 14 May, Friday

Time Temperature Precipitation Wind Pressure Humidity
00:00 +25°C° 1.7 mm 3 mps 757 mmHg 98%
01:00 +25°C° 0.8 mm 4 mps 757 mmHg 98%
02:00 +25°C° 0.8 mm 4 mps 757 mmHg 98%
03:00 +25°C° 0 mm 4 mps 756 mmHg 98%
04:00 +25°C° 1.5 mm 4 mps 757 mmHg 98%
05:00 +25°C° 1.5 mm 4 mps 757 mmHg 98%
06:00 +25°C° 1.5 mm 3 mps 757 mmHg 98%
07:00 +26°C° 0.8 mm 4 mps 758 mmHg 94%
08:00 +27°C° 0.8 mm 4 mps 758 mmHg 90%
09:00 +28°C° 0.8 mm 4 mps 758 mmHg 86%
10:00 +28°C° 0.8 mm 5 mps 758 mmHg 87%
11:00 +28°C° 0.8 mm 5 mps 758 mmHg 89%
12:00 +27°C° 0.8 mm 5 mps 757 mmHg 90%
13:00 +28°C° 0.3 mm 5 mps 757 mmHg 90%
14:00 +28°C° 0.3 mm 5 mps 757 mmHg 89%
15:00 +28°C° 0.3 mm 5 mps 756 mmHg 88%
16:00 +27°C° 0.2 mm 5 mps 756 mmHg 90%
17:00 +27°C° 0.2 mm 5 mps 757 mmHg 91%
18:00 +26°C° 0.2 mm 5 mps 757 mmHg 93%
19:00 +26°C° 1 mm 5 mps 757 mmHg 94%
20:00 +26°C° 1 mm 5 mps 758 mmHg 95%
21:00 +25°C° 1 mm 5 mps 758 mmHg 96%
22:00 +25°C° 1.4 mm 5 mps 758 mmHg 96%
23:00 +25°C° 1.4 mm 5 mps 758 mmHg 97%

Tomorrow, 15 May, Saturday

Time Temperature Precipitation Wind Pressure Humidity
00:00 +25°C° 1.4 mm 5 mps 758 mmHg 97%
01:00 +25°C° 0.4 mm 5 mps 757 mmHg 96%
02:00 +25°C° 0.4 mm 5 mps 757 mmHg 95%
03:00 +23°C° 0.4 mm 5 mps 757 mmHg 94%
04:00 +23°C° 0 mm 5 mps 757 mmHg 94%
05:00 +23°C° 0 mm 5 mps 757 mmHg 94%
06:00 +23°C° 0 mm 4 mps 758 mmHg 94%
07:00 +25°C° 0 mm 4 mps 758 mmHg 90%
08:00 +27°C° 0 mm 4 mps 758 mmHg 86%
09:00 +28°C° 0 mm 4 mps 759 mmHg 82%
10:00 +29°C° 0 mm 4 mps 758 mmHg 74%
11:00 +32°C° 0 mm 4 mps 758 mmHg 66%
12:00 +33°C° 0 mm 4 mps 757 mmHg 58%
13:00 +33°C° 0.3 mm 5 mps 757 mmHg 66%
14:00 +32°C° 0.3 mm 5 mps 757 mmHg 73%
15:00 +30°C° 0.3 mm 5 mps 756 mmHg 81%
16:00 +29°C° 1.2 mm 5 mps 757 mmHg 85%
17:00 +27°C° 1.2 mm 4 mps 757 mmHg 88%
18:00 +26°C° 1.2 mm 4 mps 758 mmHg 92%
19:00 +26°C° 0.6 mm 4 mps 758 mmHg 92%
20:00 +25°C° 0.6 mm 4 mps 758 mmHg 92%
21:00 +25°C° 0.6 mm 4 mps 759 mmHg 93%
22:00 +25°C° 0.5 mm 3 mps 759 mmHg 93%
23:00 +25°C° 0.5 mm 3 mps 758 mmHg 93%

Day after tomorrow, 16 May, Sunday

Time Temperature Precipitation Wind Pressure Humidity
00:00 +25°C° 0.5 mm 3 mps 758 mmHg 93%
01:00 +25°C° 0.3 mm 3 mps 758 mmHg 93%
02:00 +25°C° 0.3 mm 3 mps 757 mmHg 94%
03:00 +25°C° 0.3 mm 3 mps 757 mmHg 94%
04:00 +25°C° 0.3 mm 3 mps 757 mmHg 94%
05:00 +24°C° 0.3 mm 3 mps 758 mmHg 95%
06:00 +24°C° 0.3 mm 3 mps 758 mmHg 95%
07:00 +25°C° 0.1 mm 4 mps 758 mmHg 92%
08:00 +26°C° 0.1 mm 4 mps 759 mmHg 89%
09:00 +27°C° 0.1 mm 4 mps 759 mmHg 85%
10:00 +28°C° 0 mm 4 mps 759 mmHg 84%
11:00 +28°C° 0 mm 4 mps 759 mmHg 83%
12:00 +28°C° 0 mm 4 mps 758 mmHg 82%
13:00 +28°C° 0 mm 3 mps 758 mmHg 82%
14:00 +28°C° 0 mm 3 mps 757 mmHg 82%
15:00 +29°C° 0 mm 2 mps 757 mmHg 81%
16:00 +28°C° 0.1 mm 3 mps 757 mmHg 83%
17:00 +27°C° 0.1 mm 3 mps 757 mmHg 85%
18:00 +26°C° 0.1 mm 3 mps 758 mmHg 87%
19:00 +26°C° 0.2 mm 4 mps 758 mmHg 88%
20:00 +26°C° 0.2 mm 4 mps 758 mmHg 90%
21:00 +25°C° 0.2 mm 4 mps 759 mmHg 91%
22:00 +25°C° 0 mm 4 mps 759 mmHg 92%
23:00 +25°C° 0 mm 4 mps 758 mmHg 93%

17 May, Monday

Time Temperature Precipitation Wind Pressure Humidity
00:00 +25°C° 0 mm 4 mps 758 mmHg 93%
01:00 +23°C° 0.5 mm 4 mps 758 mmHg 94%
02:00 +23°C° 0.5 mm 4 mps 758 mmHg 95%
03:00 +23°C° 0.5 mm 4 mps 757 mmHg 95%
04:00 +23°C° 0.5 mm 4 mps 758 mmHg 95%
05:00 +23°C° 0.5 mm 4 mps 758 mmHg 96%
06:00 +23°C° 0.5 mm 4 mps 759 mmHg 96%
07:00 +26°C° 0.4 mm 5 mps 759 mmHg 89%
08:00 +27°C° 0.4 mm 5 mps 759 mmHg 83%
09:00 +29°C° 0.4 mm 5 mps 760 mmHg 76%
10:00 +30°C° 0.1 mm 5 mps 759 mmHg 71%
11:00 +32°C° 0.1 mm 5 mps 759 mmHg 65%
12:00 +33°C° 0.1 mm 6 mps 758 mmHg 60%
13:00 +32°C° 0.1 mm 6 mps 758 mmHg 67%
14:00 +30°C° 0.1 mm 6 mps 757 mmHg 73%
15:00 +29°C° 0.1 mm 6 mps 757 mmHg 80%
16:00 +28°C° 0.1 mm 5 mps 757 mmHg 81%
17:00 +27°C° 0.1 mm 5 mps 757 mmHg 82%
18:00 +27°C° 0.1 mm 4 mps 758 mmHg 83%
19:00 +27°C° 0 mm 4 mps 758 mmHg 85%
20:00 +26°C° 0 mm 4 mps 758 mmHg 86%
21:00 +26°C° 0 mm 4 mps 759 mmHg 88%
22:00 +26°C° 0 mm 4 mps 759 mmHg 87%
23:00 +26°C° 0 mm 4 mps 759 mmHg 87%

18 May, Tuesday

Time Temperature Precipitation Wind Pressure Humidity
00:00 +26°C° 0 mm 4 mps 759 mmHg 86%
01:00 +26°C° 0.1 mm 4 mps 758 mmHg 88%
02:00 +25°C° 0.1 mm 5 mps 758 mmHg 90%
03:00 +25°C° 0.1 mm 5 mps 758 mmHg 92%
04:00 +25°C° 1 mm 5 mps 758 mmHg 94%
05:00 +25°C° 1 mm 5 mps 758 mmHg 95%
06:00 +25°C° 1 mm 5 mps 759 mmHg 97%
07:00 +25°C° 0.1 mm 5 mps 759 mmHg 94%
08:00 +26°C° 0.1 mm 5 mps 759 mmHg 90%
09:00 +27°C° 0.1 mm 6 mps 760 mmHg 87%
10:00 +27°C° 0.3 mm 5 mps 760 mmHg 88%
11:00 +27°C° 0.3 mm 5 mps 759 mmHg 90%
12:00 +26°C° 0.3 mm 5 mps 759 mmHg 91%
13:00 +26°C° 0.4 mm 5 mps 758 mmHg 91%
14:00 +26°C° 0.4 mm 5 mps 758 mmHg 92%
15:00 +26°C° 0.4 mm 4 mps 758 mmHg 92%
16:00 +26°C° 0.1 mm 4 mps 758 mmHg 92%
17:00 +25°C° 0.1 mm 4 mps 758 mmHg 92%
18:00 +23°C° 0.1 mm 4 mps 758 mmHg 92%
19:00 +23°C° 0 mm 4 mps 758 mmHg 93%
20:00 +23°C° 0 mm 4 mps 759 mmHg 93%
21:00 +24°C° 0 mm 3 mps 759 mmHg 93%
22:00 +24°C° 0 mm 3 mps 759 mmHg 93%
23:00 +24°C° 0 mm 3 mps 759 mmHg 93%

19 May, Wednesday

Time Temperature Precipitation Wind Pressure Humidity
00:00 +22°C° 0 mm 3 mps 759 mmHg 93%
01:00 +24°C° 0 mm 3 mps 758 mmHg 93%
02:00 +24°C° 0 mm 3 mps 758 mmHg 93%
03:00 +24°C° 0 mm 3 mps 758 mmHg 93%
04:00 +24°C° 0 mm 3 mps 758 mmHg 94%
05:00 +24°C° 0 mm 3 mps 758 mmHg 95%
06:00 +25°C° 0 mm 4 mps 758 mmHg 96%
07:00 +26°C° 0.2 mm 4 mps 759 mmHg 91%
08:00 +28°C° 0.2 mm 5 mps 759 mmHg 86%
09:00 +29°C° 0.2 mm 5 mps 759 mmHg 81%
10:00 +30°C° 0.9 mm 5 mps 759 mmHg 80%
11:00 +30°C° 0.9 mm 5 mps 759 mmHg 79%
12:00 +32°C° 0.9 mm 6 mps 758 mmHg 78%
13:00 +32°C° 0.4 mm 6 mps 758 mmHg 77%
14:00 +32°C° 0.4 mm 6 mps 757 mmHg 77%
15:00 +32°C° 0.4 mm 6 mps 757 mmHg 76%
16:00 +29°C° 0.1 mm 6 mps 757 mmHg 79%
17:00 +28°C° 0.1 mm 6 mps 757 mmHg 81%
18:00 +27°C° 0.1 mm 6 mps 758 mmHg 84%
19:00 +26°C° 0 mm 5 mps 758 mmHg 86%
20:00 +26°C° 0 mm 5 mps 758 mmHg 88%
21:00 +25°C° 0 mm 5 mps 759 mmHg 90%
22:00 +25°C° 0 mm 5 mps 759 mmHg 92%
23:00 +23°C° 0 mm 4 mps 758 mmHg 93%
Show more